This is the latest recevied weather packets stored in our database for station/object lu6fg. If no packets are shown the sender has not sent any weather packets the latest 10 day(s).
| Time | Temp. | Humidity | Pressure | Rain* | Wind** | Luminosity | Snow |
|---|---|---|---|---|---|---|---|
| 1777473844 | 18.33° C | 67% | 1013.3 hPa | 0 mm | - | - | - |
| 1777473784 | 18.33° C | 67% | 1013.3 hPa | 0 mm | - | - | - |
| 1777473124 | 17.78° C | 66% | 1012.9 hPa | 0 mm | - | - | - |
| 1777473064 | 17.78° C | 67% | 1013.1 hPa | 0 mm | - | - | - |
| 1777472905 | 17.78° C | 67% | 1013.1 hPa | 0 mm | - | - | - |
| 1777472606 | 17.78° C | 68% | 1013.1 hPa | 0 mm | - | - | - |
| 1777472104 | 17.22° C | 68% | 1012.5 hPa | 0 mm | - | - | - |
| 1777471924 | 17.22° C | 67% | 1012.3 hPa | 0 mm | - | - | - |
| 1777471864 | 17.22° C | 67% | 1012.1 hPa | 0 mm | - | - | - |
| 1777471525 | 17.22° C | 67% | 1012.2 hPa | 0 mm | - | - | - |
| 1777471144 | 17.22° C | 67% | 1012.2 hPa | 0 mm | - | - | - |
| 1777470544 | 17.22° C | 67% | 1012.2 hPa | 0 mm | - | - | - |
| 1777469704 | 17.78° C | 67% | 1012.2 hPa | 0 mm | - | - | - |
| 1777469224 | 17.78° C | 66% | 1012.1 hPa | 0 mm | - | - | - |
| 1777468624 | 17.22° C | 67% | 1012.3 hPa | 0 mm | - | - | - |
| 1777468384 | 17.78° C | 67% | 1012.4 hPa | 0 mm | - | - | - |
| 1777468204 | 17.78° C | 66% | 1012.3 hPa | 0 mm | - | - | - |
| 1777467964 | 17.78° C | 66% | 1012.2 hPa | 0 mm | - | - | - |
| 1777467664 | 17.22° C | 68% | 1012.6 hPa | 0 mm | - | - | - |
| 1777467364 | 16.67° C | 70% | 1012.3 hPa | 0 mm | - | - | - |
| 1777466965 | 15.56° C | 73% | 1012.4 hPa | 0 mm | - | - | - |
| 1777466584 | 15° C | 74% | 1012.4 hPa | 0 mm | - | - | - |
| 1777466524 | 15° C | 74% | 1012.3 hPa | 0 mm | - | - | - |
| 1777466284 | 15° C | 74% | 1012.1 hPa | 0 mm | - | - | - |
| 1777466044 | 15° C | 74% | 1012.2 hPa | 0 mm | - | - | - |
* Rain latest hour (hover to see other rain measurements)
** Current wind speed in m/s (hover to see current wind gust speed)